Date String (YYYY-MM-DD hh:mm:ss) UTC,Instrument flags,Ambient pressure (hPa),Sample flow (lpm),Bypass flow (lpm),Sample temperature (°C),Ambient temperature (°C),ASC tube jacket temperature (°C),LED temperature (°C),Box temperature (°C),Sample RH (%),Span deviation,Mass concentration (μg/m³),Mass concentration (μg/m³),Mass concentration (μg/m³)
DateTimeUTC,F1_M11,P_M11,Q1_M11,Q2_M11,T1_M11,T2_M11,T3_M11,T4_M11,T5_M11,U1_M11,ZSPAN_M11,X0_M11,X2_M11,X1_M11
2021-12-03 19:00:00,,0828.1,5.00,0.00,28.3,27.6,00.0,37.3,30.1,12.4,0000.0,0014.47,0004.12,0002.94
2021-12-03 19:01:00,,0828.1,5.00,0.00,28.3,27.6,00.0,37.3,30.1,12.5,0000.0,0014.45,0004.11,0002.96
2021-12-03 19:02:00,,0828.0,4.99,0.00,28.3,27.6,00.0,37.3,30.1,12.7,0000.0,0014.11,0004.12,0002.96
2021-12-03 19:03:00,,0828.1,5.01,0.00,28.4,27.6,00.0,37.3,30.1,12.7,0000.0,0013.95,0004.09,0002.94
2021-12-03 19:04:00,,0828.0,4.99,0.00,28.4,27.6,00.0,37.3,30.1,12.8,0000.0,0013.60,0004.02,0002.89
2021-12-03 19:05:00,,0828.0,5.02,0.00,28.4,27.6,00.0,37.3,30.1,12.8,0000.0,0012.87,0004.01,0002.86
2021-12-03 19:06:00,,0828.0,4.99,0.00,28.4,27.7,00.0,37.3,30.2,12.8,0000.0,0013.07,0004.02,0002.85
2021-12-03 19:07:00,,0828.0,5.01,0.00,28.4,27.7,00.0,37.3,30.2,12.9,0000.0,0013.06,0003.99,0002.80
2021-12-03 19:08:00,,0828.0,5.00,0.00,28.4,27.7,00.0,37.3,30.2,12.9,0000.0,0013.19,0003.97,0002.76
2021-12-03 19:09:00,,0827.9,5.01,0.00,28.4,27.7,00.0,37.3,30.2,12.8,0000.0,0012.74,0003.92,0002.74
2021-12-03 19:10:00,,0827.9,4.98,0.00,28.5,27.8,00.0,37.4,30.2,12.8,0000.0,0013.32,0003.89,0002.73
2021-12-03 19:11:00,,0827.9,5.01,0.00,28.5,27.8,00.0,37.4,30.3,12.8,0000.0,0013.12,0003.87,0002.71
2021-12-03 19:12:00,,0827.9,4.99,0.00,28.5,27.8,00.0,37.4,30.3,12.9,0000.0,0012.69,0003.86,0002.68
2021-12-03 19:13:00,,0827.9,5.02,0.00,28.5,27.8,00.0,37.4,30.3,12.9,0000.0,0012.36,0003.83,0002.67
2021-12-03 19:14:00,,0827.9,4.99,0.00,28.6,27.8,00.0,37.4,30.3,12.9,0000.0,0013.06,0003.80,0002.68
2021-12-03 19:15:00,,0827.9,5.01,0.00,28.6,27.8,00.0,37.4,30.3,12.9,0000.0,0013.10,0003.79,0002.67
2021-12-03 19:16:00,,0827.9,4.99,0.00,28.6,27.9,00.0,37.4,30.3,12.9,0000.0,0013.44,0003.78,0002.67
2021-12-03 19:17:00,,0827.9,5.01,0.00,28.6,27.9,00.0,37.5,30.4,12.8,0000.0,0013.28,0003.76,0002.68
2021-12-03 19:18:00,,0827.9,5.00,0.00,28.6,27.9,00.0,37.5,30.4,12.8,0000.0,0013.20,0003.75,0002.70
2021-12-03 19:19:00,,0827.9,5.00,0.00,28.6,27.9,00.0,37.5,30.4,12.9,0000.0,0013.31,0003.73,0002.73
2021-12-03 19:20:00,,0827.9,4.99,0.00,28.7,27.9,00.0,37.5,30.4,12.9,0000.0,0013.46,0003.76,0002.77
2021-12-03 19:21:00,,0827.8,5.01,0.00,28.7,28.0,00.0,37.5,30.5,12.9,0000.0,0012.23,0003.77,0002.79
2021-12-03 19:22:00,,0827.8,5.00,0.00,28.7,28.0,00.0,37.5,30.5,12.9,0000.0,0012.06,0003.77,0002.80
2021-12-03 19:23:00,,0827.7,4.99,0.00,28.7,28.0,00.0,37.6,30.5,13.0,0000.0,0012.35,0003.78,0002.83
2021-12-03 19:24:00,,0827.8,5.02,0.00,28.7,28.0,00.0,37.6,30.5,12.9,0000.0,0012.37,0003.77,0002.83
2021-12-03 19:25:00,,0827.7,4.99,0.00,28.8,28.1,00.0,37.6,30.5,12.7,0000.0,0012.30,0003.81,0002.85
2021-12-03 19:26:00,,0827.7,5.00,0.00,28.8,28.1,00.0,37.6,30.6,12.9,0000.0,0012.61,0003.84,0002.88
2021-12-03 19:27:00,,0827.7,5.00,0.00,28.8,28.1,00.0,37.6,30.6,12.9,0000.0,0013.15,0003.86,0002.90
2021-12-03 19:28:00,,0827.7,4.99,0.00,28.8,28.1,00.0,37.7,30.6,13.0,0000.0,0013.67,0003.85,0002.91
2021-12-03 19:29:00,,0827.7,5.01,0.00,28.8,28.2,00.0,37.7,30.6,13.0,0000.0,0013.94,0003.87,0002.93
2021-12-03 19:30:00,,0827.7,4.99,0.00,28.9,28.2,00.0,37.7,30.7,13.0,0000.0,0013.42,0003.89,0002.96
2021-12-03 19:31:00,,0827.7,5.01,0.00,28.9,28.2,00.0,37.7,30.7,13.1,0000.0,0012.87,0003.85,0002.96
2021-12-03 19:32:00,,0827.7,4.99,0.00,28.9,28.2,00.0,37.7,30.7,13.1,0000.0,0012.70,0003.87,0002.98
2021-12-03 19:33:00,,0827.8,5.01,0.00,28.9,28.2,00.0,37.8,30.7,13.1,0000.0,0012.95,0003.89,0003.00
2021-12-03 19:34:00,,0827.7,5.00,0.00,28.9,28.2,00.0,37.8,30.7,13.0,0000.0,0012.52,0003.94,0003.05
2021-12-03 19:35:00,,0827.7,4.99,0.00,29.0,28.2,00.0,37.8,30.7,13.0,0000.0,0012.70,0003.98,0003.11
2021-12-03 19:36:00,,0827.7,5.01,0.00,29.0,28.3,00.0,37.8,30.7,13.1,0000.0,0013.33,0004.05,0003.14
2021-12-03 19:37:00,,0827.7,4.99,0.00,29.0,28.3,00.0,37.8,30.8,13.1,0000.0,0012.78,0004.10,0003.17
2021-12-03 19:38:00,,0827.7,5.01,0.00,29.0,28.3,00.0,37.8,30.8,13.1,0000.0,0012.04,0004.13,0003.20
2021-12-03 19:39:00,,0827.7,5.00,0.00,29.0,28.3,00.0,37.9,30.8,13.1,0000.0,0011.22,0004.14,0003.24
2021-12-03 19:40:00,,0827.7,5.01,0.00,29.0,28.3,00.0,37.9,30.8,13.1,0000.0,0011.57,0004.13,0003.27
2021-12-03 19:41:00,,0827.7,4.99,0.00,29.1,28.4,00.0,37.9,30.8,13.1,0000.0,0011.65,0004.16,0003.31
2021-12-03 19:42:00,,0827.6,4.99,0.00,29.1,28.4,00.0,37.9,30.8,13.2,0000.0,0012.51,0004.23,0003.36
2021-12-03 19:43:00,,0827.6,5.02,0.00,29.1,28.4,00.0,37.9,30.9,13.2,0000.0,0012.77,0004.23,0003.40
2021-12-03 19:44:00,,0827.5,4.99,0.00,29.1,28.4,00.0,38.0,30.9,13.1,0000.0,0012.67,0004.23,0003.43
2021-12-03 19:45:00,,0827.5,5.01,0.00,29.1,28.5,00.0,38.0,31.0,13.2,0000.0,0013.27,0004.24,0003.45
2021-12-03 19:46:00,,0827.5,4.99,0.00,29.1,28.4,00.0,38.0,31.0,13.2,0000.0,0012.98,0004.26,0003.49
2021-12-03 19:47:00,,0827.5,5.01,0.00,29.1,28.4,00.0,38.0,31.0,13.2,0000.0,0011.52,0004.23,0003.52
2021-12-03 19:48:00,,0827.5,5.00,0.00,29.1,28.4,00.0,38.0,30.9,13.1,0000.0,0012.35,0004.22,0003.54
2021-12-03 19:49:00,,0827.5,5.00,0.00,29.1,28.4,00.0,38.0,30.9,13.1,0000.0,0012.40,0004.23,0003.56
2021-12-03 19:50:00,,0827.6,5.00,0.00,29.1,28.4,00.0,38.0,30.9,13.1,0000.0,0012.80,0004.26,0003.59
2021-12-03 19:51:00,,0827.6,4.98,0.00,29.1,28.4,00.0,38.0,30.9,13.2,0000.0,0012.80,0004.32,0003.62
2021-12-03 19:52:00,,0827.5,5.01,0.00,29.1,28.4,00.0,38.0,31.0,13.2,0000.0,0013.05,0004.37,0003.66
2021-12-03 19:53:00,,0827.4,4.99,0.00,29.2,28.4,00.0,38.1,30.9,13.1,0000.0,0012.99,0004.40,0003.69
2021-12-03 19:54:00,,0827.4,4.99,0.00,29.2,28.4,00.0,38.1,31.0,13.1,0000.0,0012.69,0004.45,0003.73
2021-12-03 19:55:00,,0827.4,5.01,0.00,29.2,28.5,00.0,38.1,31.0,13.2,0000.0,0012.36,0004.44,0003.75
2021-12-03 19:56:00,,0827.4,5.00,0.00,29.2,28.5,00.0,38.1,31.0,13.1,0000.0,0011.78,0004.45,0003.78
2021-12-03 19:57:00,,0827.4,4.99,0.00,29.2,28.5,00.0,38.1,31.0,13.1,0000.0,0012.12,0004.48,0003.80
2021-12-03 19:58:00,,0827.4,5.02,0.00,29.2,28.5,00.0,38.1,31.0,13.1,0000.0,0012.07,0004.49,0003.83
2021-12-03 19:59:00,,0827.4,4.99,0.00,29.3,28.5,00.0,38.1,31.0,13.1,0000.0,0011.56,0004.53,0003.85
